EZS74UF LFPO-LSGG

Flight info

Callsign EZS74UF
Flight time N/A
Altitude 23000
Route PILUL DCT PIMUP DCT PIXIS DCT PIBAT DCT LUSAR
Aircraft A320/M-SDE2E3FGHIJ1RWXYZ/LB1

Departure

Time N/A
Airport Paris-Orly Airport (LFPO)

Arrival

Time 2026-05-04 21:53
Airport Geneva International Airport (LSGG)
Time Latitude Longitude Altitude Speed Heading
2026-05-04 21:19 47.35548 3.50132 22941 ft 353 kts 160°
2026-05-04 21:19 47.33277 3.51521 22943 ft 352 kts 160°
2026-05-04 21:19 47.31015 3.52904 22949 ft 352 kts 160°
2026-05-04 21:20 47.28754 3.54285 22955 ft 352 kts 160°
2026-05-04 21:20 47.26496 3.55667 22949 ft 352 kts 160°
2026-05-04 21:20 47.24236 3.57052 22941 ft 352 kts 160°
2026-05-04 21:20 47.21976 3.58436 22936 ft 351 kts 160°
2026-05-04 21:21 47.19718 3.59817 22943 ft 351 kts 160°
2026-05-04 21:21 47.17460 3.61195 22940 ft 351 kts 160°
2026-05-04 21:21 47.15204 3.62565 22933 ft 351 kts 160°
2026-05-04 21:21 47.12947 3.63933 22942 ft 351 kts 160°
2026-05-04 21:22 47.10691 3.65298 22942 ft 351 kts 160°
2026-05-04 21:22 47.08436 3.66661 22943 ft 350 kts 160°
2026-05-04 21:22 47.06184 3.68023 22946 ft 350 kts 160°
2026-05-04 21:22 47.03934 3.69385 22947 ft 350 kts 160°
2026-05-04 21:23 47.01687 3.70748 22944 ft 349 kts 160°
2026-05-04 21:23 46.99442 3.72110 22936 ft 349 kts 160°
2026-05-04 21:23 46.97220 3.73556 22936 ft 351 kts 154°
2026-05-04 21:23 46.95216 3.75623 22935 ft 355 kts 141°
2026-05-04 21:24 46.93569 3.78344 22940 ft 361 kts 128°
2026-05-04 21:24 46.92388 3.81603 22935 ft 366 kts 115°
2026-05-04 21:24 46.91478 3.85091 22931 ft 367 kts 115°
2026-05-04 21:24 46.90562 3.88576 22931 ft 367 kts 115°
2026-05-04 21:25 46.89640 3.92054 22929 ft 367 kts 115°
2026-05-04 21:25 46.88714 3.95529 22938 ft 367 kts 115°
2026-05-04 21:25 46.87788 3.98998 22943 ft 366 kts 115°
2026-05-04 21:25 46.86864 4.02464 22942 ft 366 kts 115°
2026-05-04 21:26 46.85941 4.05928 22944 ft 366 kts 115°
2026-05-04 21:26 46.85019 4.09391 22938 ft 366 kts 115°
2026-05-04 21:26 46.84094 4.12851 22943 ft 365 kts 116°
2026-05-04 21:26 46.83169 4.16304 22944 ft 365 kts 116°
2026-05-04 21:27 46.82258 4.19710 22948 ft 365 kts 116°
2026-05-04 21:27 46.81335 4.23155 22943 ft 365 kts 116°
2026-05-04 21:27 46.80496 4.26656 22952 ft 368 kts 108°
2026-05-04 21:27 46.79952 4.30315 22947 ft 369 kts 106°
2026-05-04 21:28 46.79427 4.33971 22950 ft 369 kts 106°
2026-05-04 21:28 46.78899 4.37637 22951 ft 369 kts 106°
2026-05-04 21:28 46.78367 4.41296 22954 ft 369 kts 106°
2026-05-04 21:28 46.77833 4.44957 22953 ft 369 kts 106°
2026-05-04 21:29 46.77298 4.48614 22943 ft 368 kts 107°
2026-05-04 21:29 46.76761 4.52272 22940 ft 369 kts 107°
2026-05-04 21:29 46.76223 4.55922 22942 ft 369 kts 107°
2026-05-04 21:29 46.75681 4.59582 22942 ft 369 kts 107°
2026-05-04 21:30 46.75138 4.63238 22944 ft 369 kts 107°
2026-05-04 21:30 46.74594 4.66891 22947 ft 369 kts 107°
2026-05-04 21:30 46.74050 4.70541 22942 ft 369 kts 107°
2026-05-04 21:30 46.73505 4.74196 22944 ft 369 kts 107°
2026-05-04 21:31 46.72414 4.81499 22950 ft 369 kts 107°
2026-05-04 21:31 46.71868 4.85148 22951 ft 369 kts 107°
2026-05-04 21:31 46.71323 4.88795 22935 ft 369 kts 107°
2026-05-04 21:32 46.70772 4.92446 22936 ft 369 kts 107°
2026-05-04 21:32 46.70227 4.96047 22939 ft 369 kts 107°
2026-05-04 21:32 46.69666 4.99753 22939 ft 370 kts 107°
2026-05-04 21:32 46.69119 5.03359 22946 ft 370 kts 107°
2026-05-04 21:33 46.68562 5.07015 22948 ft 370 kts 107°
2026-05-04 21:33 46.68004 5.10677 22948 ft 370 kts 107°
2026-05-04 21:33 46.67444 5.14337 22947 ft 370 kts 107°
2026-05-04 21:33 46.66881 5.17995 22948 ft 370 kts 107°
2026-05-04 21:34 46.66319 5.21655 22958 ft 371 kts 107°
2026-05-04 21:34 46.65765 5.25322 22959 ft 371 kts 107°
2026-05-04 21:34 46.65214 5.28986 22940 ft 371 kts 107°
2026-05-04 21:34 46.64663 5.32651 22951 ft 370 kts 107°
2026-05-04 21:35 46.64114 5.36310 22962 ft 370 kts 107°
2026-05-04 21:35 46.63562 5.39964 22967 ft 370 kts 107°
2026-05-04 21:35 46.63005 5.43616 22970 ft 370 kts 107°
2026-05-04 21:35 46.62444 5.47268 22973 ft 370 kts 107°
2026-05-04 21:36 46.61867 5.50993 22981 ft 381 kts 107°
2026-05-04 21:36 46.61285 5.54734 22559 ft 378 kts 107°
2026-05-04 21:36 46.60706 5.58447 22034 ft 375 kts 107°
2026-05-04 21:36 46.60130 5.62135 21537 ft 373 kts 107°
2026-05-04 21:37 46.59557 5.65803 21056 ft 370 kts 107°
2026-05-04 21:37 46.58986 5.69444 20578 ft 368 kts 106°
2026-05-04 21:37 46.58419 5.73062 20114 ft 366 kts 106°
2026-05-04 21:37 46.57834 5.76633 19512 ft 359 kts 110°
2026-05-04 21:38 46.56853 5.79912 18795 ft 349 kts 124°
2026-05-04 21:38 46.55440 5.82656 18392 ft 331 kts 137°
2026-05-04 21:38 46.53751 5.84803 17973 ft 315 kts 148°
2026-05-04 21:38 46.51989 5.86584 17591 ft 303 kts 148°
2026-05-04 21:39 46.50291 5.88298 17216 ft 292 kts 148°
2026-05-04 21:39 46.48631 5.89968 16851 ft 290 kts 148°
2026-05-04 21:39 46.46974 5.91630 16468 ft 289 kts 148°
2026-05-04 21:39 46.45325 5.93281 16096 ft 288 kts 148°
2026-05-04 21:40 46.43686 5.94918 15723 ft 286 kts 148°
2026-05-04 21:40 46.42047 5.96552 15369 ft 285 kts 148°
2026-05-04 21:40 46.40417 5.98180 15006 ft 284 kts 148°
2026-05-04 21:40 46.38804 5.99822 14645 ft 283 kts 143°
2026-05-04 21:41 46.37504 6.01965 14282 ft 286 kts 122°
2026-05-04 21:41 46.36819 6.04677 13911 ft 291 kts 101°
2026-05-04 21:41 46.36864 6.07604 13505 ft 294 kts 78°
2026-05-04 21:41 46.37649 6.10327 13099 ft 295 kts 56°
2026-05-04 21:42 46.39010 6.12557 12628 ft 302 kts 46°
2026-05-04 21:42 46.40522 6.14772 12150 ft 314 kts 46°
2026-05-04 21:42 46.42069 6.17028 11697 ft 317 kts 46°
2026-05-04 21:42 46.43628 6.19297 11246 ft 319 kts 46°
2026-05-04 21:43 46.45194 6.21586 10800 ft 320 kts 46°
2026-05-04 21:43 46.46758 6.23891 10361 ft 321 kts 46°
2026-05-04 21:43 46.48319 6.26204 9931 ft 322 kts 46°
2026-05-04 21:43 46.49888 6.28528 9464 ft 322 kts 46°
2026-05-04 21:44 46.51453 6.30850 8992 ft 321 kts 46°
2026-05-04 21:44 46.53007 6.33169 8524 ft 318 kts 47°
2026-05-04 21:44 46.54516 6.35434 8062 ft 305 kts 47°
2026-05-04 21:44 46.55886 6.37697 7625 ft 291 kts 60°
2026-05-04 21:45 46.56529 6.40333 7411 ft 267 kts 87°
2026-05-04 21:45 46.56390 6.42867 7209 ft 248 kts 110°
2026-05-04 21:45 46.55622 6.45041 7074 ft 240 kts 132°
2026-05-04 21:45 46.54377 6.46607 7003 ft 235 kts 153°
2026-05-04 21:46 46.52859 6.47385 7004 ft 227 kts 172°
2026-05-04 21:46 46.51327 6.47335 7008 ft 218 kts 192°
2026-05-04 21:46 46.49905 6.46613 7014 ft 217 kts 201°
2026-05-04 21:46 46.48514 6.45781 7014 ft 216 kts 201°
2026-05-04 21:47 46.47127 6.44931 7016 ft 217 kts 207°
2026-05-04 21:47 46.45940 6.43605 7021 ft 215 kts 223°
2026-05-04 21:47 46.44894 6.42072 6879 ft 212 kts 224°
2026-05-04 21:47 46.43871 6.40540 6638 ft 211 kts 224°
2026-05-04 21:48 46.42845 6.39011 6374 ft 212 kts 225°
2026-05-04 21:48 46.41816 6.37484 6087 ft 212 kts 224°
2026-05-04 21:48 46.40786 6.35956 5798 ft 212 kts 225°
2026-05-04 21:48 46.39753 6.34425 5515 ft 212 kts 225°
2026-05-04 21:49 46.38722 6.32898 5228 ft 213 kts 225°
2026-05-04 21:49 46.37686 6.31364 4949 ft 213 kts 225°
2026-05-04 21:49 46.36646 6.29825 4667 ft 214 kts 225°
2026-05-04 21:49 46.35601 6.28280 4373 ft 215 kts 225°
2026-05-04 21:50 46.34567 6.26751 4101 ft 207 kts 225°
2026-05-04 21:50 46.33591 6.25309 3830 ft 195 kts 225°
2026-05-04 21:50 46.32661 6.23936 3569 ft 187 kts 226°
2026-05-04 21:50 46.31778 6.22634 3318 ft 176 kts 226°
2026-05-04 21:51 46.30936 6.21392 3092 ft 172 kts 226°
2026-05-04 21:51 46.30106 6.20168 2859 ft 167 kts 226°
2026-05-04 21:51 46.29311 6.18996 2616 ft 159 kts 226°
2026-05-04 21:51 46.28549 6.17874 2412 ft 154 kts 226°
2026-05-04 21:52 46.27820 6.16800 2205 ft 147 kts 226°
2026-05-04 21:52 46.27111 6.15758 2004 ft 145 kts 226°
2026-05-04 21:52 46.26408 6.14723 1806 ft 144 kts 226°
2026-05-04 21:52 46.25707 6.13692 1617 ft 143 kts 226°
2026-05-04 21:53 46.25009 6.12665 1427 ft 143 kts 226°
2026-05-04 21:53 46.24356 6.11704 1372 ft 118 kts 227°
2026-05-04 21:53 46.23973 6.11146 1375 ft 54 kts 225°
2026-05-04 21:53 46.23760 6.10844 1380 ft 31 kts 218°
2026-05-04 21:54 46.23567 6.10716 1381 ft 27 kts 193°
2026-05-04 21:54 46.23398 6.10631 1400 ft 25 kts 214°
2026-05-04 21:54 46.23335 6.10549 1398 ft 0 kts 225°
2026-05-04 21:55 46.23315 6.10526 1396 ft 8 kts 207°
2026-05-04 21:55 46.23252 6.10568 1397 ft 12 kts 137°
2026-05-04 21:56 46.23196 6.10645 1396 ft 5 kts 135°
2026-05-04 21:56 46.23164 6.10663 1396 ft 1 kts 166°
2026-05-04 21:56 46.23153 6.10672 1393 ft 4 kts 148°
2026-05-04 21:56 46.23147 6.10679 1399 ft 1 kts 143°
2026-05-04 21:57 46.23139 6.10689 1396 ft 2 kts 139°
2026-05-04 21:57 46.23131 6.10700 1396 ft 0 kts 136°
2026-05-04 21:57 46.23130 6.10702 1396 ft 0 kts 136°